TimeEST,TemperatureF,Dew PointF,Humidity,Sea Level PressureIn,VisibilityMPH,Wind Direction,Wind SpeedMPH,Gust SpeedMPH,PrecipitationIn,Events,Conditions,WindDirDegrees,DateUTC
12:54 AM,48.0,43.0,83,30.03,7.0,Calm,Calm,-,N/A,,Overcast,0,2013-12-04 05:54:00
1:54 AM,46.9,43.0,86,30.03,7.0,Calm,Calm,-,N/A,,Overcast,0,2013-12-04 06:54:00
2:54 AM,48.9,44.1,83,30.04,6.0,Calm,Calm,-,0.00,Rain,Light Rain,0,2013-12-04 07:54:00
3:54 AM,48.0,46.0,93,30.04,2.5,Calm,Calm,-,0.02,Rain,Light Rain,0,2013-12-04 08:54:00
4:35 AM,48.0,46.0,93,30.05,3.0,Calm,Calm,-,0.01,,Overcast,0,2013-12-04 09:35:00
4:45 AM,48.9,46.9,93,30.05,2.0,Calm,Calm,-,0.01,Rain,Light Rain,0,2013-12-04 09:45:00
4:52 AM,48.2,46.4,93,30.05,1.5,Calm,Calm,-,0.04,Rain,Rain,0,2013-12-04 09:52:00
4:54 AM,48.0,46.0,93,30.06,1.5,Calm,Calm,-,0.04,Rain,Light Rain,0,2013-12-04 09:54:00
5:07 AM,48.0,46.9,96,30.05,2.0,Calm,Calm,-,0.01,Rain,Light Rain,0,2013-12-04 10:07:00
5:15 AM,48.0,46.0,93,30.05,1.5,Calm,Calm,-,0.02,Rain,Light Rain,0,2013-12-04 10:15:00
5:26 AM,48.0,46.0,93,30.05,2.0,Calm,Calm,-,0.03,Rain,Light Rain,0,2013-12-04 10:26:00
5:41 AM,48.0,46.0,93,30.05,1.8,Calm,Calm,-,0.04,Rain,Rain,0,2013-12-04 10:41:00
5:54 AM,48.0,46.0,93,30.05,2.0,Calm,Calm,-,0.07,Rain,Light Rain,0,2013-12-04 10:54:00
6:03 AM,48.0,46.0,93,30.05,4.0,Calm,Calm,-,0.00,Rain,Light Rain,0,2013-12-04 11:03:00
6:41 AM,48.9,46.0,90,30.06,3.0,Calm,Calm,-,0.00,,Overcast,0,2013-12-04 11:41:00
6:51 AM,48.2,46.4,93,30.06,2.5,Calm,Calm,-,0.00,,Overcast,0,2013-12-04 11:51:00
6:54 AM,48.9,46.9,93,30.07,2.5,Calm,Calm,-,0.00,,Overcast,0,2013-12-04 11:54:00
7:02 AM,48.9,46.9,93,30.06,3.0,Calm,Calm,-,N/A,,Overcast,0,2013-12-04 12:02:00
7:54 AM,48.9,46.0,90,30.08,3.0,Calm,Calm,-,N/A,,Overcast,0,2013-12-04 12:54:00
8:51 AM,50.0,46.4,87,30.09,4.0,Calm,Calm,-,N/A,,Overcast,0,2013-12-04 13:51:00
8:54 AM,50.0,46.9,89,30.10,4.0,South,3.5,-,N/A,,Overcast,170,2013-12-04 13:54:00
9:54 AM,52.0,48.0,86,30.11,6.0,Calm,Calm,-,N/A,,Overcast,0,2013-12-04 14:54:00
10:09 AM,53.1,48.0,83,30.10,6.0,Calm,Calm,-,N/A,,Haze,0,2013-12-04 15:09:00
10:30 AM,53.1,48.0,83,30.10,6.0,Calm,Calm,-,N/A,,Haze,0,2013-12-04 15:30:00
10:49 AM,53.6,48.2,82,30.10,6.0,Calm,Calm,-,N/A,,Haze,0,2013-12-04 15:49:00
10:54 AM,54.0,48.9,83,30.10,6.0,Calm,Calm,-,N/A,,Haze,0,2013-12-04 15:54:00
11:19 AM,57.0,50.0,77,30.09,6.0,Calm,Calm,-,N/A,,Haze,0,2013-12-04 16:19:00
11:54 AM,57.9,52.0,81,30.08,7.0,Calm,Calm,-,N/A,,Overcast,0,2013-12-04 16:54:00
12:30 PM,59.0,53.1,81,30.06,7.0,South,4.6,-,N/A,,Overcast,180,2013-12-04 17:30:00
12:54 PM,57.9,52.0,81,30.06,6.0,South,4.6,-,N/A,,Haze,180,2013-12-04 17:54:00
1:43 PM,57.9,53.1,84,30.05,1.8,Calm,Calm,-,N/A,,Haze,0,2013-12-04 18:43:00
1:54 PM,57.0,54.0,89,30.05,1.0,Calm,Calm,-,N/A,,Overcast,0,2013-12-04 18:54:00
2:10 PM,57.9,54.0,87,30.05,2.5,Calm,Calm,-,N/A,,Overcast,0,2013-12-04 19:10:00
2:18 PM,57.9,54.0,87,30.04,3.0,Calm,Calm,-,N/A,,Overcast,0,2013-12-04 19:18:00
2:54 PM,57.9,54.0,87,30.04,4.0,Calm,Calm,-,N/A,,Overcast,0,2013-12-04 19:54:00
3:12 PM,59.0,55.0,87,30.04,4.0,Calm,Calm,-,N/A,,Overcast,0,2013-12-04 20:12:00
3:42 PM,59.0,55.0,87,30.04,5.0,Calm,Calm,-,N/A,,Overcast,0,2013-12-04 20:42:00
3:54 PM,59.0,55.0,87,30.05,5.0,Calm,Calm,-,N/A,,Overcast,0,2013-12-04 20:54:00
4:54 PM,57.9,55.0,90,30.05,4.0,Calm,Calm,-,N/A,,Overcast,0,2013-12-04 21:54:00
5:54 PM,57.0,54.0,89,30.06,3.0,Calm,Calm,-,N/A,,Overcast,0,2013-12-04 22:54:00
6:30 PM,57.0,55.0,93,30.07,2.5,Calm,Calm,-,N/A,,Overcast,0,2013-12-04 23:30:00
6:41 PM,57.0,54.0,89,30.07,3.0,Calm,Calm,-,N/A,,Overcast,0,2013-12-04 23:41:00
6:54 PM,55.9,54.0,93,30.07,2.5,Calm,Calm,-,N/A,,Overcast,0,2013-12-04 23:54:00
7:54 PM,55.9,54.0,93,30.09,2.5,Calm,Calm,-,N/A,,Overcast,0,2013-12-05 00:54:00
8:54 PM,55.9,54.0,93,30.08,2.5,Calm,Calm,-,N/A,,Overcast,0,2013-12-05 01:54:00
9:38 PM,55.9,54.0,93,30.10,1.8,Calm,Calm,-,N/A,,Overcast,0,2013-12-05 02:38:00
9:45 PM,55.9,54.0,93,30.10,2.0,Calm,Calm,-,N/A,,Overcast,0,2013-12-05 02:45:00
9:54 PM,55.9,54.0,93,30.10,2.0,Calm,Calm,-,N/A,,Overcast,0,2013-12-05 02:54:00
9:56 PM,55.9,54.0,93,30.10,1.8,Calm,Calm,-,N/A,,Overcast,0,2013-12-05 02:56:00
10:15 PM,55.9,54.0,93,30.10,2.5,Calm,Calm,-,N/A,,Overcast,0,2013-12-05 03:15:00
10:35 PM,55.9,54.0,93,30.09,2.5,Calm,Calm,-,N/A,,Overcast,0,2013-12-05 03:35:00
10:50 PM,55.4,53.6,94,30.09,1.5,Calm,Calm,-,N/A,,Overcast,0,2013-12-05 03:50:00
10:54 PM,55.0,53.1,93,30.10,1.2,Calm,Calm,-,N/A,,Overcast,0,2013-12-05 03:54:00
11:19 PM,55.0,53.1,93,30.09,2.0,Calm,Calm,-,N/A,,Mostly Cloudy,0,2013-12-05 04:19:00
11:44 PM,54.0,52.0,93,30.09,0.8,Calm,Calm,-,N/A,,Partly Cloudy,0,2013-12-05 04:44:00
11:54 PM,53.1,51.1,93,30.09,0.2,Calm,Calm,-,N/A,Fog,Fog,0,2013-12-05 04:54:00